Wind_Speed
2 1 2 2 2 1 0 1 1 1 1 0 0 0 1 2 2 3 3 3 2 2 1 2 2 2 2 2 3 3 3 4 4 4 4 4 5 5 5 5 5 6 6 7 7 7 7 8 8
2 2 2 2 1 0 1 2 2 1 1 1 1 1 2 2 3 3 3 3 3 3 3 3 2 2 3 4 5 4 4 5 5 4 5 5 5 6 6 6 6 6 7 7 7 8 8 8 9
2 1 1 1 1 1 2 2 2 2 2 2 3 3 4 3 3 4 4 4 4 4 4 4 3 3 4 5 5 5 5 5 5 5 5 5 5 6 7 7 6 6 7 7 7 8 9 9 10
1 1 1 2 2 2 2 2 2 3 3 4 5 5 5 5 5 4 5 5 5 5 5 4 3 4 5 5 5 5 5 5 5 5 5 5 5 6 6 5 6 6 7 7 7 8 9 9 10
2 1 1 2 3 3 3 3 4 5 5 5 5 5 5 5 5 5 6 6 6 6 5 4 4 5 5 5 5 5 5 5 5 5 5 5 5 6 5 5 5 7 7 7 7 7 8 9 9
2 2 2 3 3 3 3 4 5 6 6 6 6 6 6 6 5 5 6 6 7 7 6 4 5 6 6 6 6 6 6 5 5 5 5 5 5 5 5 5 5 6 6 7 7 7 7 8 9
3 3 3 4 4 4 4 5 6 6 7 7 6 6 6 6 6 6 6 6 7 7 6 5 5 6 6 6 6 5 5 5 5 5 5 5 5 5 5 5 5 5 6 6 7 7 8 8 9
4 4 4 5 5 5 5 6 6 6 7 7 7 6 6 6 6 6 6 6 6 6 5 5 6 5 5 6 6 5 6 5 5 5 4 4 5 5 4 5 5 5 5 6 6 7 8 8 8
4 4 4 5 5 5 6 6 6 7 7 7 7 7 7 6 6 6 6 5 5 6 5 5 5 5 5 5 6 5 5 4 5 5 4 4 4 5 4 5 5 5 5 4 5 6 7 8 8
5 5 5 5 5 6 6 7 7 7 8 8 7 8 7 6 5 6 5 5 6 6 5 5 5 5 5 4 4 4 4 4 4 4 3 4 4 4 4 4 4 4 4 3 3 4 7 8 8
5 6 6 6 6 6 7 7 8 8 8 8 8 8 7 6 6 6 6 5 5 5 5 5 5 5 5 4 4 4 4 3 3 2 2 2 3 3 3 3 3 3 4 3 3 4 5 6 7
6 7 7 7 7 7 7 7 8 8 8 8 7 7 7 7 6 6 6 5 5 5 5 5 5 5 5 4 3 3 4 3 2 2 2 2 2 2 1 1 2 2 3 3 3 3 4 5 6
7 7 8 7 7 7 8 8 8 8 8 8 8 7 6 7 6 5 5 5 5 6 6 6 5 5 4 4 3 3 3 2 2 3 2 2 1 1 1 0 0 1 2 2 2 2 4 4 5
8 8 7 7 8 8 8 8 8 8 8 7 7 7 6 6 6 5 5 5 6 6 6 6 5 5 4 4 3 3 2 2 2 2 2 1 1 1 1 1 0 1 1 2 2 3 3 4 5
8 8 8 8 9 9 9 9 8 8 8 8 7 7 7 7 6 6 5 6 6 6 6 6 5 5 4 3 3 2 2 2 2 1 1 1 1 0 0 0 0 1 1 2 2 3 3 4 4
9 9 9 9 9 9 10 10 9 9 9 8 7 7 7 7 6 6 6 6 6 6 6 6 5 5 4 4 3 2 2 1 1 1 1 1 1 0 0 0 1 1 2 2 2 3 4 4 4
9 10 10 10 10 10 10 11 11 10 10 9 8 8 8 7 7 6 6 6 6 6 6 6 6 6 5 4 3 3 2 1 1 1 1 1 0 0 1 1 1 1 2 2 3 4 4 4 4
10 10 10 10 10 11 11 11 11 11 11 10 10 9 9 8 7 7 7 6 6 7 7 7 7 6 5 4 4 3 2 1 1 1 1 0 1 1 1 1 1 2 2 3 3 4 5 4 4
10 10 10 10 10 10 10 11 12 11 11 11 10 9 9 9 9 8 7 7 7 7 7 8 7 7 6 5 4 3 2 1 2 1 1 1 1 1 1 1 2 2 3 4 4 4 5 5 4
10 10 10 10 10 10 10 10 11 11 11 11 10 9 9 10 10 9 8 8 8 8 8 8 8 7 6 5 5 4 3 2 2 2 2 2 2 2 2 3 3 3 3 4 4 4 4 4 3
10 10 10 10 11 11 10 10 11 11 11 10 10 10 10 10 10 10 9 8 8 8 8 8 8 8 7 6 5 4 3 3 2 2 2 2 2 2 3 3 3 3 3 4 4 4 4 4 3
11 11 10 10 10 10 10 10 11 11 10 10 9 10 10 10 10 10 9 9 9 9 8 8 8 8 7 6 5 4 4 3 2 2 3 2 2 2 3 3 3 3 3 4 4 4 4 4 4
12 11 11 11 11 11 10 10 10 10 9 9 9 10 10 10 10 10 10 10 9 9 9 9 9 8 8 7 6 5 4 4 3 2 3 2 2 3 3 3 3 3 4 4 4 4 4 4 4
13 12 11 11 11 11 11 11 10 10 10 9 9 10 10 10 10 10 10 10 10 10 10 10 10 9 8 7 7 6 5 5 4 3 3 3 3 4 4 4 3 3 4 4 4 4 3 3 3
13 12 12 12 12 12 12 11 11 11 11 10 9 10 10 11 10 10 10 10 11 11 10 10 10 10 9 9 8 8 7 6 5 4 3 4 4 4 4 4 3 4 4 4 4 3 3 3 2
14 14 13 13 13 12 12 12 12 11 11 10 10 10 10 10 11 11 11 12 12 12 12 11 11 11 10 9 9 9 8 8 7 6 5 5 5 4 4 4 4 4 3 3 3 3 3 2 1
16 15 15 15 14 13 13 12 12 12 12 11 10 10 11 11 11 11 11 12 12 12 12 12 12 12 11 10 10 10 10 9 7 7 5 5 5 5 4 4 3 3 3 2 2 2 2 1 1
18 17 16 15 15 14 13 13 13 13 12 12 12 11 11 11 10 11 11 12 12 13 13 13 12 12 12 11 11 11 11 10 9 7 6 6 6 5 4 4 3 3 3 3 2 2 2 2 1
19 18 17 17 16 15 14 14 13 13 13 13 12 12 11 11 11 11 12 12 13 13 13 14 13 13 13 12 12 12 11 11 10 9 8 7 7 6 5 5 4 4 4 4 4 3 3 2 2
20 19 19 18 17 17 16 16 14 14 14 13 13 13 12 11 11 12 13 13 13 14 14 14 14 13 13 13 12 12 12 12 11 10 9 9 8 7 7 6 6 5 5 5 4 4 4 3 4
Wind_Direction
56 55 37 32 36 38 193 255 293 319 341 329 200 220 284 256 247 253 269 266 275 280 272 283 279 258 265 261 276 278 276 283 279 272 263 264 262 263 265 261 254 245 241 243 242 238 237 232 228
39 37 24 23 22 331 262 282 274 291 315 290 264 279 299 276 267 270 277 271 271 266 268 265 272 275 275 277 276 269 274 282 281 280 270 269 271 266 265 262 258 249 244 245 244 243 241 237 232
12 17 29 22 333 290 285 283 268 275 285 288 295 297 294 286 277 280 280 281 275 265 262 263 259 267 269 275 267 273 279 282 284 291 288 277 276 276 271 263 257 251 249 248 243 241 239 234 231
341 2 354 328 301 287 286 278 276 282 275 278 289 293 287 281 278 277 277 275 266 267 264 259 269 264 263 264 267 268 272 278 285 289 286 286 283 283 276 264 259 254 253 249 244 239 237 232 230
317 329 320 299 290 283 277 274 280 280 277 281 282 284 283 279 277 274 275 269 265 267 266 256 266 264 262 263 262 265 273 281 283 283 286 284 285 282 271 272 270 260 254 249 245 240 235 230 227
295 297 283 284 288 286 276 274 278 284 288 288 286 282 280 282 281 276 274 272 267 262 257 256 266 267 261 269 266 270 278 283 279 278 280 283 280 276 273 275 272 262 254 250 250 243 233 228 225
275 280 274 277 283 287 281 279 281 286 289 288 288 286 285 285 284 278 274 272 267 261 255 259 263 267 267 267 272 274 277 279 280 277 276 275 271 272 274 270 270 265 258 253 252 244 236 231 228
271 279 280 278 280 288 285 283 284 287 291 294 292 288 288 286 284 278 270 268 262 260 257 261 266 270 272 273 277 277 281 279 280 279 275 271 274 276 271 268 266 265 260 253 251 244 235 231 228
273 273 283 287 286 291 288 288 288 288 292 294 291 286 288 289 282 272 269 265 261 264 261 260 267 266 269 271 274 277 283 286 288 278 277 280 285 284 276 267 263 260 258 256 245 238 229 226 223
277 272 280 286 287 290 289 291 294 295 295 293 289 284 284 286 281 272 267 261 261 264 261 253 257 258 268 272 274 278 286 288 290 283 277 288 292 291 284 269 255 252 253 250 239 233 224 220 216
273 273 275 281 284 289 291 292 295 296 295 292 286 285 282 280 272 266 262 267 268 265 261 250 251 257 261 268 276 288 289 286 286 285 290 290 303 299 286 266 250 248 246 237 235 233 222 216 212
278 278 279 279 282 286 290 293 296 295 289 287 284 283 281 276 270 263 260 267 266 261 257 253 252 256 256 257 271 288 295 284 283 273 288 283 302 313 278 259 249 245 242 235 231 229 220 209 205
278 281 281 278 280 282 288 291 295 294 290 284 281 277 279 278 273 261 263 263 262 262 257 248 247 246 246 247 260 279 292 291 282 266 269 275 267 338 7 4 275 233 233 232 218 206 205 201 201
281 283 279 278 281 281 285 287 290 289 288 285 280 272 272 274 268 259 262 263 262 261 255 247 245 240 235 236 247 275 288 292 293 282 257 273 281 310 6 23 139 187 213 218 195 190 186 190 191
281 283 282 279 280 280 281 282 286 282 283 285 278 268 267 272 268 257 258 264 265 259 252 243 241 234 229 228 237 250 280 281 283 267 261 271 297 40 40 70 161 183 171 176 172 164 170 178 185
281 280 281 281 281 279 277 279 280 278 280 281 276 267 265 267 263 256 257 261 260 253 247 241 237 231 224 226 231 236 260 263 253 256 264 259 275 315 70 112 130 148 150 155 157 156 157 165 176
282 280 281 283 281 277 275 275 278 276 276 276 273 269 264 259 256 259 258 256 257 253 248 239 232 231 229 230 231 236 246 243 242 264 248 244 224 142 122 123 129 134 140 142 153 150 155 158 163
283 282 283 284 282 277 275 274 276 274 273 272 271 269 262 254 254 261 260 255 256 254 247 234 227 229 229 231 228 236 257 233 220 214 210 183 139 101 98 117 132 137 134 132 139 145 149 150 155
284 285 286 285 283 280 279 277 276 272 272 271 268 264 255 250 255 259 260 257 252 251 241 229 224 227 228 226 222 233 239 219 206 181 136 149 123 91 101 128 115 128 130 133 129 138 140 141 151
284 284 285 286 283 280 280 277 277 273 273 269 264 258 252 253 254 255 258 256 251 245 234 229 226 225 226 228 228 229 233 232 217 162 150 137 121 106 101 125 128 128 130 137 138 137 143 150 155
283 283 282 283 283 282 279 274 274 275 275 269 261 256 253 253 253 254 256 249 245 242 236 233 226 223 224 225 225 227 229 217 201 182 174 149 134 117 111 118 125 131 129 132 140 141 142 142 142
276 278 279 282 283 281 279 275 274 270 268 265 261 258 253 254 254 254 250 244 243 241 238 231 225 222 220 222 225 227 211 205 204 203 192 170 150 145 136 130 127 127 133 137 135 140 145 139 134
271 275 278 280 281 282 277 273 271 268 263 261 262 260 254 252 253 253 248 242 240 237 234 230 223 222 220 223 224 222 217 214 206 197 184 174 163 159 144 138 129 128 134 136 135 136 139 137 132
268 272 276 278 280 280 276 271 267 263 262 259 257 256 252 249 251 250 247 240 236 233 231 226 222 221 224 225 226 225 220 211 206 193 180 172 161 158 148 140 138 136 142 143 142 139 139 131 124
265 268 271 273 276 276 272 268 265 261 258 256 255 253 253 250 248 249 244 237 233 230 229 225 223 223 226 230 230 223 218 212 206 194 185 171 159 156 153 147 141 137 139 144 148 145 145 136 123
260 262 265 269 271 273 270 268 266 262 261 255 254 256 256 253 248 246 242 237 234 232 228 225 225 225 226 230 229 223 219 214 206 198 192 180 171 165 165 166 156 149 144 145 152 154 148 149 152
257 258 261 265 267 267 267 266 264 261 262 256 254 257 255 253 248 243 241 239 233 228 225 226 227 227 226 228 229 223 218 215 210 208 207 198 189 182 185 186 181 177 174 174 177 183 181 213 231
254 255 258 261 262 263 265 262 259 258 259 256 254 255 254 252 246 240 240 237 231 227 228 228 229 227 226 228 230 224 220 218 216 215 217 210 205 202 202 199 199 203 202 206 211 222 221 244 259
253 253 255 257 259 259 262 261 258 258 259 255 252 252 252 251 246 240 238 237 232 228 227 226 227 228 227 228 229 225 224 224 223 221 219 217 214 213 214 214 218 223 225 228 231 238 234 253 264
251 251 253 254 256 256 257 258 257 257 257 253 249 247 247 246 245 243 237 236 231 227 228 229 229 227 227 228 228 225 225 226 226 224 225 226 226 225 222 225 229 234 237 240 242 245 243 255 270
Height
5897 5897 5898 5898 5899 5899 5898 5898 5898 5897 5896 5896 5895 5895 5895 5895 5896 5897 5894 5892 5892 5891 5890 5889 5888 5888 5887 5887 5886 5885 5885 5884 5884 5883 5883 5883 5883 5883 5883 5882 5882 5882 5882 5882 5883 5883 5884 5884 5885
5897 5897 5898 5899 5899 5898 5898 5898 5897 5897 5896 5895 5895 5895 5894 5894 5894 5893 5892 5891 5891 5890 5889 5888 5888 5887 5887 5886 5885 5884 5884 5883 5883 5882 5882 5882 5882 5882 5881 5881 5881 5880 5881 5881 5881 5881 5882 5882 5883
5897 5897 5898 5898 5898 5898 5898 5897 5897 5896 5895 5895 5894 5894 5894 5893 5893 5892 5891 5891 5890 5889 5888 5887 5887 5886 5886 5885 5884 5884 5883 5882 5882 5881 5881 5881 5881 5880 5880 5880 5879 5879 5879 5879 5879 5879 5880 5880 5881
5897 5897 5898 5898 5897 5897 5897 5896 5896 5895 5895 5894 5894 5893 5893 5892 5892 5891 5890 5890 5889 5888 5887 5886 5886 5886 5885 5884 5884 5883 5882 5882 5881 5881 5880 5880 5879 5879 5878 5878 5878 5878 5878 5877 5877 5877 5878 5878 5879
5896 5896 5897 5896 5896 5896 5896 5895 5895 5894 5893 5893 5893 5892 5891 5891 5890 5889 5889 5888 5888 5887 5886 5885 5885 5885 5884 5884 5883 5882 5881 5881 5880 5880 5879 5879 5878 5878 5877 5877 5876 5876 5876 5876 5875 5876 5876 5877 5877
5896 5896 5896 5896 5895 5895 5894 5894 5893 5893 5892 5891 5891 5891 5890 5889 5888 5888 5887 5887 5886 5886 5885 5885 5884 5884 5883 5883 5882 5881 5880 5880 5879 5879 5878 5877 5877 5876 5876 5876 5875 5875 5875 5874 5874 5874 5874 5875 5876
5895 5895 5895 5894 5894 5894 5893 5892 5892 5891 5891 5890 5890 5889 5888 5887 5887 5886 5886 5885 5884 5884 5883 5883 5883 5882 5882 5881 5881 5880 5879 5879 5878 5878 5877 5877 5876 5875 5875 5874 5874 5873 5873 5872 5872 5872 5872 5873 5874
5893 5894 5893 5893 5893 5892 5892 5891 5890 5890 5889 5889 5888 5887 5887 5886 5885 5884 5884 5883 5883 5882 5882 5882 5882 5881 5881 5880 5880 5879 5878 5878 5877 5876 5876 5875 5875 5874 5873 5873 5872 5872 5871 5871 5871 5870 5871 5872 5873
5891 5893 5892 5892 5891 5891 5890 5890 5889 5888 5888 5887 5886 5886 5885 5884 5883 5883 5883 5882 5882 5881 5881 5881 5880 5880 5880 5879 5879 5878 5878 5877 5876 5875 5875 5874 5874 5873 5872 5871 5871 5870 5870 5869 5869 5869 5869 5870 5871
5890 5891 5891 5890 5890 5889 5888 5888 5887 5886 5886 5885 5885 5884 5883 5883 5882 5882 5882 5881 5881 5880 5880 5880 5879 5879 5879 5879 5878 5877 5877 5876 5875 5874 5874 5873 5872 5871 5871 5870 5869 5869 5869 5868 5868 5868 5868 5869 5870
5888 5888 5888 5888 5888 5887 5887 5886 5885 5885 5884 5884 5883 5882 5882 5882 5881 5881 5881 5880 5880 5879 5879 5879 5879 5878 5878 5878 5877 5876 5876 5875 5874 5874 5873 5872 5872 5871 5870 5869 5868 5868 5868 5867 5867 5867 5867 5868 5869
5887 5886 5886 5886 5886 5885 5885 5884 5884 5883 5883 5882 5881 5881 5880 5880 5880 5879 5879 5879 5879 5879 5878 5878 5878 5878 5877 5877 5877 5876 5875 5875 5874 5873 5873 5872 5871 5870 5869 5868 5868 5867 5867 5867 5866 5866 5866 5867 5868
5885 5885 5884 5884 5884 5883 5883 5882 5882 5881 5880 5880 5879 5879 5879 5879 5878 5878 5878 5878 5878 5878 5877 5877 5877 5877 5877 5876 5876 5875 5875 5874 5874 5873 5872 5872 5871 5870 5869 5868 5868 5867 5867 5866 5866 5866 5866 5867 5868
5883 5883 5882 5882 5882 5882 5881 5881 5880 5879 5879 5878 5878 5878 5877 5877 5877 5877 5877 5877 5877 5876 5876 5876 5876 5876 5876 5876 5875 5875 5874 5874 5873 5873 5872 5872 5871 5870 5869 5868 5868 5867 5867 5867 5866 5867 5867 5867 5868
5881 5882 5881 5881 5880 5880 5880 5879 5878 5878 5877 5877 5876 5876 5876 5876 5876 5876 5876 5876 5875 5875 5875 5875 5875 5875 5875 5875 5875 5875 5874 5874 5873 5872 5872 5871 5871 5870 5869 5868 5868 5867 5867 5867 5867 5867 5867 5867 5868
5880 5880 5880 5879 5878 5878 5879 5878 5877 5876 5876 5875 5875 5875 5875 5875 5875 5875 5875 5875 5875 5874 5874 5874 5875 5875 5875 5875 5875 5874 5874 5873 5873 5872 5872 5871 5871 5870 5869 5868 5868 5867 5867 5867 5867 5867 5867 5868 5868
5878 5877 5877 5877 5876 5876 5876 5875 5875 5874 5874 5874 5873 5873 5873 5873 5873 5873 5873 5874 5874 5874 5874 5874 5874 5874 5874 5874 5874 5874 5874 5873 5872 5872 5872 5871 5871 5870 5869 5869 5868 5867 5867 5867 5867 5867 5868 5868 5869
5876 5875 5875 5874 5874 5873 5873 5873 5873 5872 5872 5872 5872 5872 5872 5872 5872 5872 5872 5873 5873 5873 5873 5873 5873 5874 5874 5874 5874 5874 5873 5873 5872 5872 5871 5871 5871 5870 5869 5869 5868 5868 5868 5868 5868 5868 5868 5869 5869
5873 5873 5872 5872 5871 5871 5871 5870 5870 5870 5870 5870 5870 5870 5870 5870 5871 5871 5871 5871 5871 5872 5872 5872 5873 5873 5873 5873 5874 5873 5873 5873 5872 5872 5871 5871 5871 5870 5869 5869 5869 5869 5869 5869 5869 5869 5869 5869 5869
5870 5870 5870 5869 5869 5869 5868 5868 5868 5868 5868 5867 5867 5868 5868 5868 5869 5869 5870 5870 5870 5870 5871 5871 5872 5872 5873 5873 5873 5873 5873 5873 5872 5872 5871 5871 5871 5870 5870 5869 5869 5869 5869 5869 5870 5870 5870 5870 5870
5867 5867 5867 5867 5867 5866 5867 5867 5866 5866 5865 5865 5865 5866 5866 5867 5867 5867 5868 5868 5869 5869 5870 5870 5870 5871 5872 5872 5872 5873 5872 5872 5872 5872 5872 5872 5871 5871 5870 5870 5870 5870 5870 5870 5870 5871 5871 5871 5871
5865 5865 5865 5865 5864 5864 5865 5865 5864 5863 5863 5863 5863 5863 5864 5865 5865 5865 5866 5866 5867 5868 5868 5869 5869 5870 5871 5871 5872 5872 5872 5872 5872 5872 5872 5872 5871 5871 5871 5871 5871 5871 5871 5871 5871 5871 5871 5871 5871
5862 5862 5862 5862 5862 5862 5862 5862 5863 5861 5861 5861 5861 5861 5862 5862 5863 5863 5864 5865 5866 5866 5867 5868 5868 5869 5870 5871 5871 5871 5872 5872 5872 5872 5872 5872 5872 5871 5871 5871 5871 5871 5872 5872 5872 5872 5872 5872 5872
5859 5859 5859 5859 5860 5860 5860 5860 5860 5860 5859 5859 5859 5859 5860 5860 5860 5861 5862 5863 5864 5865 5866 5867 5867 5868 5869 5870 5870 5871 5871 5871 5872 5872 5872 5872 5872 5872 5872 5872 5872 5872 5872 5873 5873 5873 5873 5873 5873
5856 5857 5857 5857 5857 5858 5857 5857 5858 5857 5857 5857 5857 5857 5857 5858 5858 5859 5859 5860 5862 5863 5864 5865 5866 5867 5868 5869 5869 5870 5870 5871 5871 5872 5872 5872 5872 5872 5872 5873 5873 5873 5873 5873 5873 5873 5874 5873 5873
5852 5854 5855 5855 5855 5855 5854 5854 5855 5854 5854 5854 5854 5855 5855 5855 5856 5856 5857 5858 5859 5860 5862 5863 5864 5865 5866 5867 5868 5869 5869 5870 5871 5871 5872 5872 5872 5873 5873 5873 5873 5874 5874 5874 5874 5874 5874 5874 5874
5849 5849 5850 5851 5851 5851 5851 5852 5852 5851 5851 5851 5852 5852 5852 5852 5853 5854 5854 5856 5857 5858 5860 5861 5862 5863 5865 5865 5866 5867 5868 5869 5870 5871 5871 5872 5872 5872 5873 5873 5874 5874 5874 5874 5874 5874 5874 5874 5874
5845 5845 5846 5847 5847 5848 5848 5848 5849 5848 5848 5849 5849 5849 5849 5850 5850 5851 5852 5853 5855 5856 5857 5859 5860 5861 5863 5864 5865 5866 5867 5868 5869 5870 5870 5871 5872 5872 5873 5873 5874 5874 5874 5874 5874 5874 5874 5874 5874
5840 5841 5842 5843 5843 5844 5845 5847 5845 5845 5845 5846 5846 5846 5846 5847 5848 5848 5850 5851 5852 5854 5855 5856 5858 5859 5860 5861 5863 5864 5865 5867 5868 5869 5870 5870 5871 5872 5872 5873 5873 5873 5874 5874 5874 5874 5873 5873 5873
5834 5835 5837 5839 5839 5840 5841 5844 5841 5841 5841 5842 5842 5843 5844 5844 5845 5846 5847 5848 5850 5851 5853 5854 5855 5857 5858 5859 5861 5862 5864 5865 5866 5867 5868 5869 5870 5871 5871 5872 5872 5873 5873 5873 5873 5873 5873 5873 5873